Home   Weather   Perm   Past weeks
Flag for Russia

Past Weather in Perm, Russia — Yesterday and Last 2 Weeks

Now
75 °F

Partly sunny.


Feels Like: 78 °F
Forecast: 74 / 59 °F
Wind: 10 mph from West

Location: Perm'/Bolshoe Savino

Current Time: Jul 21, 2019 at 3:50:45 pm

Latest Report: Jul 21, 2019 at 3:00 pm


Visibility: N/A

Pressure: 29.80 "Hg

Humidity: 54%

Dew Point: 57 °F

Location of PermLocation

Past Weather in Perm — Graph

°F

Perm Temperature Yesterday

Maximum temperature yesterday: 79 °F (at 3:30 pm)
Minimum temperature yesterday: 59 °F (at 4:00 am)
Average temperature yesterday: 70 °F

High & Low Weather Summary for the Past Weeks

 TemperatureHumidityPressure
High81 °F (Jul 13, 5:30 pm)100% (Jul 8, 4:30 am)29.98 "Hg (Jul 8, 4:30 am)
Low46 °F (Jul 9, 4:30 am)41% (Jul 18, 4:00 pm)29.27 "Hg (Jul 15, 9:30 pm)
Average64 °F80%29.70 "Hg
* Reported Jul 6 2:00 pm — Jul 21 2:30 pm, Perm. Weather by CustomWeather, © 2019

Note: Actual official high and low records may vary slightly from our data, if they occured in-between our weather recording intervals... More about our weather records

Advertising

Perm Weather History for the Previous 24 Hours

Scroll right to see more
 ConditionsComfort  
Time TempWeatherWind HumidityBarometerVisibility
2:30 pm
Sun, Jul 21
73 °FPartly sunny.10 mph61%29.77 "HgN/A
2:00 pm75 °FPartly sunny.10 mph61%29.80 "HgN/A
1:30 pm75 °FPartly sunny.13 mph61%29.80 "HgN/A
1:00 pm75 °FPartly sunny.10 mph61%29.80 "HgN/A
12:30 pm73 °FPartly sunny.10 mph65%29.77 "HgN/A
12:00 pm73 °FPassing clouds.10 mph65%29.80 "HgN/A
11:30 am73 °FPassing clouds.10 mph65%29.77 "HgN/A
11:00 am73 °FPassing clouds.10 mph69%29.77 "HgN/A
10:30 am72 °FPassing clouds.6 mph73%29.77 "HgN/A
10:00 am72 °FSunny.6 mph73%29.77 "Hg10 mi
9:30 am70 °FSunny.8 mph78%29.80 "Hg10 mi
9:00 am68 °FPassing clouds.8 mph83%29.80 "HgN/A
8:30 am66 °FPassing clouds.8 mph88%29.80 "HgN/A
8:00 am64 °FSunny.6 mph88%29.80 "Hg10 mi
7:30 am63 °FSunny.6 mph94%29.80 "Hg10 mi
7:00 am61 °FSunny.3 mph94%29.80 "Hg10 mi
6:30 am59 °FSunny.3 mph94%29.80 "Hg10 mi
6:00 am59 °FSunny.3 mph94%29.80 "Hg10 mi
5:30 am61 °FPassing clouds.3 mph88%29.80 "HgN/A
5:00 am59 °FPassing clouds.3 mph94%29.80 "HgN/A
4:30 am59 °FClear.3 mph94%29.80 "Hg10 mi
4:00 am59 °FClear.1 mph94%29.80 "Hg10 mi
3:30 am61 °FClear.1 mph88%29.83 "Hg10 mi
3:00 am61 °FClear.1 mph94%29.83 "Hg10 mi
2:30 am61 °FClear.1 mph94%29.80 "Hg10 mi
2:00 am61 °FClear.1 mph94%29.80 "Hg10 mi
1:30 am61 °FClear.1 mph94%29.80 "Hg10 mi
1:00 am64 °FPassing clouds.3 mph88%29.80 "HgN/A
12:30 am64 °FClear.3 mph88%29.80 "Hg10 mi
12:00 am64 °FPassing clouds.3 mph88%29.83 "HgN/A
11:30 pm
Sat, Jul 20
66 °FPassing clouds.3 mph83%29.83 "HgN/A
11:00 pm66 °FClear.No wind88%29.83 "Hg10 mi
10:30 pm68 °FSunny.No wind83%29.83 "Hg10 mi
10:00 pm70 °FSunny.1 mph78%29.83 "Hg10 mi
9:30 pm72 °FPassing clouds.No wind78%29.83 "HgN/A
9:00 pm73 °FPassing clouds.3 mph74%29.83 "HgN/A
8:30 pm79 °FPassing clouds.No wind58%29.83 "HgN/A
8:00 pm79 °FPassing clouds.1 mph61%29.83 "HgN/A
7:30 pm79 °FPassing clouds.3 mph54%29.83 "HgN/A
7:00 pm79 °FPassing clouds.3 mph58%29.83 "HgN/A
6:30 pm79 °FScattered clouds.3 mph54%29.83 "HgN/A
6:00 pm79 °FScattered clouds.3 mph54%29.83 "HgN/A
5:30 pm79 °FScattered clouds.6 mph58%29.83 "HgN/A
5:00 pm79 °FScattered clouds.6 mph61%29.83 "HgN/A
4:30 pm79 °FScattered clouds.8 mph54%29.83 "HgN/A
4:00 pm77 °FScattered clouds.6 mph65%29.86 "HgN/A
3:30 pm79 °FScattered clouds.6 mph61%29.86 "HgN/A
3:00 pm77 °FScattered clouds.8 mph69%29.83 "HgN/A
Weather by CustomWeather, © 2019

See weather overview